Location: Cerbedi�res
(48.2182°N, 1.4849°W)
Time: 08:06:37
(UTC+00:00)

Cosmos 1271 Rocket - Pass Details

Date: 03 March 2021
Orbit: 498 x 544 km, 81.2° (Epoch: 11 April)

Event Time Altitude Azimuth Distance (km) Brightness Sun altitude
Rises 18:28:23 0° 346° (NNW) 2,602 6.4 -6.6°
Reaches altitude 10° 18:30:31 10° 344° (NNW) 1,714 5.5 -7.0°
Maximum altitude 18:34:14 67° 262° (W) 548 3.1 -7.6°
Drops below altitude 10° 18:37:57 10° 179° (S) 1,708 5.3 -8.2°
Sets 18:40:04 0° 177° (S) 2,592 6.2 -8.6°
